D0A00670 Weather Reports


time (UTC)temp
C
wind
direction
speed
KPH
gust
KPH
rain 1hr
cm
rain 24hr
cm
rain mn
cm
humidity
%
barometer
mb
20260506213008 10 307 4.8 19.3 0.00 0.13 0.03 84 1009.2
20260506211505 11 336 3.2 8.0 0.00 0.13 0.03 84 1009.1
20260506210006 11 323 6.4 12.9 0.00 0.13 0.03 84 1008.9
20260506204501 11 313 3.2 16.1 0.00 0.20 0.03 83 1008.7
20260506203059 11 314 4.8 16.1 0.00 0.20 0.03 83 1008.7
20260506201555 11 276 3.2 12.9 0.00 0.20 0.03 82 1008.5
20260506200053 11 298 3.2 16.1 0.00 0.20 0.03 82 1008.4
20260506194551 12 349 4.8 14.5 0.00 0.20 0.03 82 1008.3
20260506193048 12 323 3.2 8.0 0.00 0.20 0.03 82 1008.1
20260506191546 12 274 4.8 12.9 0.00 0.20 0.03 82 1007.9
20260506190044 12 232 3.2 12.9 0.00 0.20 0.03 81 1007.8
20260506184549 12 291 3.2 12.9 0.00 0.20 0.03 81 1007.5
20260506183052 12 334 6.4 16.1 0.00 0.20 0.03 81 1007.1
20260506181604 13 277 8.0 17.7 0.00 0.20 0.03 81 1007.0
20260506180037 13 320 6.4 17.7 0.00 0.20 0.03 81 1006.8
20260506174534 13 277 8.0 20.9 0.00 0.20 0.03 81 1006.7
20260506173048 13 292 9.7 20.9 0.00 0.20 0.03 81 1006.4
20260506171533 13 286 11.3 24.1 0.00 0.20 0.03 82 1006.2
20260506170038 14 270 8.0 17.7 0.00 0.20 0.03 81 1006.2
20260506164537 14 315 11.3 20.9 0.00 0.20 0.03 81 1006.1
20260506163035 14 304 12.9 27.4 0.00 0.20 0.03 79 1006.3
20260506161528 15 225 6.4 20.9 0.00 0.20 0.03 76 1006.1
20260506160026 16 280 12.9 27.4 0.00 0.20 0.03 71 1005.9
20260506154526 17 269 16.1 29.0 0.00 0.23 0.03 67 1005.8
20260506153025 17 248 9.7 20.9 0.00 0.23 0.03 64 1005.5
20260506151524 17 258 4.8 16.1 0.00 0.23 0.03 64 1005.4
20260506150024 18 209 6.4 22.5 0.00 0.23 0.03 62 1005.2
20260506144525 18 201 8.0 16.1 0.00 0.28 0.03 62 1005.1
20260506143023 18 228 11.3 20.9 0.00 0.28 0.03 61 1005.2
20260506141521 17 281 4.8 20.9 0.00 0.28 0.03 64 1005.2
20260506140021 17 207 6.4 14.5 0.00 0.28 0.03 63 1005.2
20260506134519 18 247 6.4 20.9 0.00 0.56 0.03 63 1005.2
20260506133022 18 218 9.7 20.9 0.00 0.56 0.03 62 1005.2
20260506131524 18 236 11.3 19.3 0.00 0.56 0.03 61 1005.3
20260506130016 18 212 6.4 24.1 0.00 0.56 0.03 61 1005.2
20260506124514 18 251 6.4 22.5 0.00 0.56 0.03 64 1005.3
20260506123014 18 176 11.3 22.5 0.00 0.56 0.03 63 1005.2
20260506121509 18 222 8.0 22.5 0.00 0.56 0.03 63 1005.3
20260506120016 17 250 8.0 17.7 0.00 0.56 0.03 63 1005.4
20260506114518 17 192 9.7 16.1 0.00 0.56 0.03 64 1005.5
20260506113021 17 251 1.6 16.1 0.00 0.56 0.03 65 1005.5
20260506111504 17 194 11.3 20.9 0.00 0.56 0.03 66 1005.6
20260506110003 17 210 8.0 12.9 0.00 0.56 0.03 69 1005.7
20260506104606 16 213 8.0 17.7 0.00 0.56 0.03 69 1005.8
20260506103100 16 223 8.0 16.1 0.00 0.56 0.03 69 1005.9
20260506101557 16 255 8.0 17.7 0.00 0.56 0.03 70 1006.0
20260506100056 16 230 8.0 16.1 0.00 0.56 0.03 72 1006.0
20260506094557 15 243 9.7 16.1 0.00 0.56 0.03 73 1006.0
20260506093056 15 247 6.4 14.5 0.03 0.56 0.03 72 1005.9
20260506091559 16 235 6.4 14.5 0.03 0.56 0.03 70 1005.7
20260506090100 16 255 8.0 22.5 0.03 0.56 0.03 71 1005.8
20260506084553 16 223 12.9 19.3 0.03 0.56 0.03 71 1005.8
20260506083050 16 241 11.3 24.1 0.00 0.53 0.00 71 1005.6
20260506081546 15 237 6.4 19.3 0.00 0.53 0.00 75 1005.5
20260506073038 15 197 8.0 12.9 0.00 0.53 0.00 80 1005.5
20260506071535 14 210 8.0 16.1 0.00 0.53 0.00 82 1005.4
20260506061523 13 197 0.0 12.9 0.00 0.53 0.00 90 1005.4
20260506044512 11 147 0.0 8.0 0.00 0.53 0.00 94 1005.4
20260506043013 11 151 0.0 4.8 0.00 0.53 0.00 94 1005.4
20260506041507 12 147 0.0 9.7 0.00 0.53 0.00 94 1005.5
20260506040007 12 141 4.8 11.3 0.00 0.53 0.00 94 1005.5
20260506034510 12 201 4.8 11.3 0.00 0.53 0.00 94 1005.6
20260506033003 12 142 1.6 9.7 0.00 0.53 0.00 94 1005.7
20260506031503 12 149 0.0 4.8 0.00 0.53 0.00 94 1005.6
20260506030007 12 176 1.6 8.0 0.00 0.53 0.00 94 1005.7
20260506024619 12 142 0.0 8.0 0.00 0.53 0.00 95 1005.6
20260506023100 12 144 0.0 6.4 0.00 0.53 0.00 95 1005.7
20260506021559 12 178 0.0 0.0 0.00 0.53 0.00 95 1005.7
20260506020058 12 137 0.0 0.0 0.00 0.53 0.00 95 1005.7
20260506014555 12 197 0.0 0.0 0.00 0.53 0.00 95 1005.9
20260506013107 12 219 0.0 0.0 0.00 0.53 0.00 95 1006.0
20260506011606 11 219 0.0 0.0 0.00 0.53 0.00 95 1006.0
20260506010056 12 197 0.0 0.0 0.00 0.53 0.00 94 1006.0
20260506004549 12 178 0.0 0.0 0.00 0.53 0.00 94 1006.3
20260506003048 12 190 1.6 6.4 0.00 0.53 0.00 94 1006.2
20260506001547 12 181 0.0 4.8 0.00 0.53 0.00 94 1006.2
20260506000047 12 209 0.0 0.0 0.00 0.53 0.00 94 1006.3
20260505234543 12 188 0.0 3.2 0.00 0.53 0.00 94 1006.4
20260505233042 12 220 0.0 9.7 0.00 0.53 0.00 94 1006.5
20260505231541 13 194 1.6 8.0 0.00 0.53 0.00 94 1006.5
20260505230051 13 199 0.0 9.7 0.00 0.53 0.00 94 1006.5
20260505224536 13 209 0.0 8.0 0.00 0.53 0.00 94 1006.5
20260505223040 13 163 0.0 8.0 0.03 0.53 0.00 94 1006.5
20260505221535 13 174 0.0 8.0 0.05 0.53 0.00 94 1006.5
20260505220030 13 182 1.6 6.4 0.08 0.53 0.00 93 1006.5
20260505214529 13 172 3.2 12.9 0.18 0.53 0.53 93 1006.6